Location: DARK SKY Beskydy - Park tmavé oblohy, www.darkskybeskydy.cz
(49.4926°N, 18.5016°E)
Time: 04:18:36
(UTC+01:00)

Envisat - Pass Details

Date: 06 December 2022
Orbit: 763 x 765 km, 98.2° (Epoch: 05 February)

Event Time Altitude Azimuth Distance (km) Brightness Sun altitude
Rises 05:06:18 0° 7° (N) 3,245 6.2 -21.8°
Reaches altitude 10° 05:08:47 10° 358° (N) 2,314 5.4 -21.4°
Enters shadow 05:11:06 23° 339° (NNW) 1,580 4.3 -21.0°
